Owosso, MI

9:47 PM EST on December 04, 2016 (GMT -0500)
Owosso

Weather History for KRNP - August, 2014

Change the Weather History Date:

Saturday, August 30, 2014

  Actual Average (KFNT) Record (KFNT)
Temperature  
Mean Temperature 75 °F 67 °F  
Max Temperature 82 °F 78 °F 96 °F (1953)
Min Temperature 68 °F 56 °F 38 °F (1976)
Degree Days  
Heating Degree Days 0 2  
Month to date heating degree days 31  
Since 1 June heating degree days 112  
Since 1 July heating degree days 46  
Cooling Degree Days 10 3  
Month to date cooling degree days 143  
Year to date cooling degree days 474  
Since 1 June cooling degree days 442  
Growing Degree Days 25 (Base 50)    
Moisture  
Dew Point 67 °F    
Average Humidity 80    
Maximum Humidity 92    
Minimum Humidity 62    
Precipitation  
Precipitation 0.00 in 0.11 in 0.85 in (1955)
Month to date precipitation 3.07  
Year to date precipitation 20.45  
Snow  
Snow 0.00 in 0.00 in 0.00 in ()
Month to date snowfall 0.0  
Since 1 June snowfall 0.0  
Since 1 July snowfall 0.0  
Snow Depth -    
Sea Level Pressure  
Sea Level Pressure 29.90 in    
Wind  
Wind Speed 9 mph (South)    
Max Wind Speed 22 mph    
Max Gust Speed 28 mph    
Visibility 10 miles    
Events Rain    
T = Trace of Precipitation, MM = Missing Value Source: NWS Daily Summary

Daily Weather History Graph

Daily Weather History Graph

Search for Another Location

Airport or City:

Trip Planner

Search our weather history database for the weather conditions in past years. The results will help you decide how hot, cold, wet, or windy it might be!

Date:

Astronomy

Aug. 30, 2014 Rise Set
Actual Time 6:58 AM EDT 8:14 PM EDT
Civil Twilight 6:29 AM EDT 8:43 PM EDT
Nautical Twilight 5:54 AM EDT 9:19 PM EDT
Astronomical Twilight 5:16 AM EDT 9:56 PM EDT
Moon 11:53 AM EDT (8/30) 10:39 PM EDT (8/30)
Length of Visible Light 14h 14m
Length of Day
13h 15m
Waxing Crescent, 23% of the Moon is Illuminated
Aug 30
Waxing Crescent
Sep 2
First Quarter
Sep 8
Full
Sep 15
Last Quarter
Sep 24
New

Hourly Weather History & Observations

Time (EDT) Temp. Heat Index Dew Point Humidity Pressure Visibility Wind Dir Wind Speed Gust Speed Precip Events Conditions
12:13 AM 69.3 °F - 60.3 °F 73% 30.00 in 10.0 mi SSE 8.1 mph - N/A   Clear
12:34 AM 69.1 °F - 60.8 °F 75% 29.99 in 10.0 mi SSE 8.1 mph - N/A   Clear
12:54 AM 69.1 °F - 61.2 °F 76% 29.99 in 10.0 mi SSE 6.9 mph - N/A   Scattered Clouds
1:14 AM 69.1 °F - 61.7 °F 77% 29.99 in 10.0 mi SSE 6.9 mph - N/A   Scattered Clouds
1:34 AM 68.7 °F - 62.1 °F 79% 29.98 in 10.0 mi SSE 6.9 mph - N/A   Clear
1:54 AM 68.5 °F - 62.6 °F 81% 29.97 in 10.0 mi SSE 8.1 mph - N/A   Clear
2:14 AM 69.1 °F - 62.6 °F 80% 29.96 in 10.0 mi SSE 8.1 mph - N/A   Clear
2:34 AM 69.3 °F - 62.6 °F 79% 29.96 in 10.0 mi SSE 6.9 mph - N/A   Clear
2:54 AM 69.4 °F - 62.8 °F 79% 29.95 in 10.0 mi SSE 8.1 mph - N/A   Clear
3:14 AM 69.4 °F - 62.8 °F 79% 29.94 in 10.0 mi South 6.9 mph - N/A   Clear
3:34 AM 69.1 °F - 63.1 °F 81% 29.94 in 10.0 mi South 6.9 mph - N/A   Clear
3:54 AM 69.1 °F - 63.0 °F 81% 29.94 in 10.0 mi South 6.9 mph - N/A   Clear
4:14 AM 69.1 °F - 63.1 °F 81% 29.93 in 10.0 mi South 8.1 mph - N/A   Clear
4:34 AM 69.3 °F - 63.1 °F 81% 29.93 in 10.0 mi SSE 8.1 mph - N/A   Clear
4:54 AM 69.4 °F - 63.5 °F 81% 29.93 in 10.0 mi South 9.2 mph - N/A   Clear
5:14 AM 69.8 °F - 63.9 °F 81% 29.92 in 10.0 mi South 6.9 mph - N/A   Clear
5:34 AM 70.0 °F - 64.4 °F 82% 29.92 in 10.0 mi South 8.1 mph - N/A   Clear
5:54 AM 70.3 °F - 64.4 °F 81% 29.92 in 10.0 mi South 9.2 mph - N/A   Clear
6:14 AM 70.2 °F - 64.4 °F 82% 29.91 in 10.0 mi South 9.2 mph - N/A   Clear
6:34 AM 70.5 °F - 64.4 °F 81% 29.92 in 10.0 mi South 10.4 mph - N/A   Clear
6:54 AM 70.3 °F - 64.4 °F 81% 29.92 in 10.0 mi South 6.9 mph - N/A   Scattered Clouds
7:14 AM 70.2 °F - 64.4 °F 82% 29.92 in 10.0 mi South 8.1 mph - N/A   Clear
7:34 AM 70.3 °F - 64.4 °F 81% 29.92 in 10.0 mi SSE 6.9 mph - N/A   Clear
7:54 AM 70.3 °F - 64.6 °F 82% 29.91 in 10.0 mi South 8.1 mph - N/A   Clear
8:14 AM 70.7 °F - 64.8 °F 81% 29.91 in 10.0 mi South 10.4 mph - N/A   Clear
8:34 AM 71.6 °F - 65.1 °F 80% 29.91 in 10.0 mi South 11.5 mph - N/A   Scattered Clouds
8:54 AM 73.4 °F - 65.5 °F 76% 29.91 in 10.0 mi South 10.4 mph 17.3 mph N/A   Mostly Cloudy
9:14 AM 74.5 °F - 66.2 °F 75% 29.91 in 10.0 mi SSW 12.7 mph 20.7 mph N/A   Scattered Clouds
9:34 AM 75.2 °F - 66.7 °F 75% 29.92 in 10.0 mi SSW 8.1 mph 17.3 mph N/A   Mostly Cloudy
9:54 AM 75.2 °F - 67.1 °F 76% 29.92 in 10.0 mi SSW 11.5 mph 16.1 mph N/A   Mostly Cloudy
10:14 AM 72.5 °F - 68.2 °F 86% 29.91 in 7.0 mi South 6.9 mph - N/A Rain Light Rain
10:54 AM 72.9 °F - 69.3 °F 88% 29.92 in 10.0 mi SSW 6.9 mph - N/A Rain Light Rain
11:14 AM 73.6 °F - 69.4 °F 87% 29.91 in 10.0 mi SSW 8.1 mph - N/A   Scattered Clouds
11:34 AM 75.2 °F - 69.4 °F 82% 29.91 in 10.0 mi SSW 10.4 mph 18.4 mph N/A   Scattered Clouds
11:54 AM 75.9 °F - 69.3 °F 80% 29.91 in 7.0 mi SSW 11.5 mph 18.4 mph N/A   Clear
12:13 PM 76.3 °F - 69.1 °F 78% 29.91 in 10.0 mi SSW 13.8 mph 20.7 mph N/A   Scattered Clouds
12:34 PM 76.6 °F - 68.9 °F 77% 29.90 in 10.0 mi South 12.7 mph 18.4 mph N/A   Mostly Cloudy
12:54 PM 78.6 °F - 69.6 °F 74% 29.89 in 10.0 mi South 11.5 mph 17.3 mph N/A   Scattered Clouds
1:14 PM 77.9 °F - 69.1 °F 74% 29.90 in 10.0 mi South 13.8 mph 20.7 mph N/A   Clear
1:34 PM 77.5 °F - 70.5 °F 79% 29.89 in 10.0 mi South 11.5 mph - N/A Rain Light Rain
1:54 PM 78.4 °F - 69.3 °F 73% 29.89 in 10.0 mi SSW 12.7 mph 19.6 mph N/A   Scattered Clouds
2:14 PM 78.8 °F - 70.3 °F 75% 29.89 in 10.0 mi South 13.8 mph 19.6 mph N/A   Scattered Clouds
2:34 PM 79.7 °F - 70.2 °F 73% 29.88 in 10.0 mi South 12.7 mph 17.3 mph N/A   Scattered Clouds
2:54 PM 79.7 °F - 70.3 °F 73% 29.87 in 10.0 mi South 12.7 mph 17.3 mph N/A   Scattered Clouds
3:14 PM 80.6 °F 83.9 °F 70.0 °F 70% 29.86 in 10.0 mi South 11.5 mph 20.7 mph N/A   Scattered Clouds
3:54 PM 80.6 °F 83.9 °F 69.8 °F 70% 29.84 in 10.0 mi South 8.1 mph 16.1 mph N/A   Mostly Cloudy
4:13 PM 81.5 °F 84.9 °F 69.4 °F 67% 29.84 in 10.0 mi South 13.8 mph 17.3 mph N/A   Scattered Clouds
4:34 PM 81.0 °F 83.9 °F 68.5 °F 66% 29.83 in 10.0 mi South 13.8 mph 23.0 mph N/A   Clear
4:54 PM 81.5 °F 84.6 °F 68.9 °F 65% 29.83 in 10.0 mi SSW 12.7 mph - N/A   Clear
5:14 PM 82.8 °F 86.4 °F 69.3 °F 64% 29.82 in 10.0 mi South 12.7 mph 19.6 mph N/A   Clear
5:34 PM 82.4 °F 85.4 °F 68.4 °F 62% 29.81 in 10.0 mi South 17.3 mph 20.7 mph N/A   Scattered Clouds
5:53 PM 80.8 °F 83.8 °F 68.7 °F 67% 29.81 in 10.0 mi South 11.5 mph - N/A   Scattered Clouds
6:14 PM 77.7 °F - 71.6 °F 81% 29.83 in 2.5 mi SSW 21.9 mph 27.6 mph N/A Rain Rain
6:34 PM 75.6 °F - 70.3 °F 84% 29.83 in 10.0 mi SW 8.1 mph 16.1 mph N/A   Scattered Clouds
6:54 PM 75.0 °F - 71.1 °F 87% 29.82 in 10.0 mi SSW 4.6 mph - N/A   Mostly Cloudy
7:14 PM 74.3 °F - 71.1 °F 90% 29.83 in 10.0 mi SW 6.9 mph - N/A Rain Light Rain
7:34 PM 75.2 °F - 70.5 °F 85% 29.83 in 10.0 mi SSW 9.2 mph - N/A   Scattered Clouds
7:54 PM 75.0 °F - 70.0 °F 84% 29.83 in 10.0 mi SSW 8.1 mph - N/A   Clear
8:14 PM 74.8 °F - 70.0 °F 85% 29.84 in 10.0 mi SSW 8.1 mph - N/A   Scattered Clouds
8:34 PM 74.8 °F - 70.5 °F 86% 29.85 in 10.0 mi SSW 6.9 mph - N/A   Mostly Cloudy
8:54 PM 73.9 °F - 71.1 °F 91% 29.86 in 10.0 mi SW 3.5 mph - N/A Rain Light Rain
9:34 PM 73.6 °F - 71.1 °F 92% 29.88 in 10.0 mi SW 6.9 mph - N/A   Scattered Clouds
9:54 PM 73.8 °F - 70.0 °F 88% 29.88 in 10.0 mi SSW 6.9 mph - N/A   Scattered Clouds
10:13 PM 73.4 °F - 69.1 °F 86% 29.88 in 10.0 mi SW 6.9 mph - N/A   Scattered Clouds
10:34 PM 72.1 °F - 68.9 °F 89% 29.87 in 10.0 mi SW 3.5 mph - N/A   Clear
10:54 PM 71.8 °F - 68.7 °F 90% 29.88 in 10.0 mi SW 6.9 mph - N/A   Clear
11:14 PM 71.6 °F - 68.9 °F 91% 29.89 in 10.0 mi SW 6.9 mph - N/A   Clear
11:34 PM 72.1 °F - 69.1 °F 90% 29.89 in 10.0 mi SSW 5.8 mph - N/A   Clear
11:54 PM 71.8 °F - 68.9 °F 91% 29.89 in 10.0 mi SSW 4.6 mph - N/A   Clear